Regional Weather Roundup
Issued by NWS

Home | Current Version | Previous Version | Graphics & Text | Print | Product List | Glossary On
Versions: 1 2 3 4 5 6 7 8 9 10 11 12 13 14 15 16 17 18 19 20 21 22 23 24 25 26 27 28 29 30 31 32 33 34 35 36 37 38 39 40 41 42 43 44 45 46 47 48 49 50
000
ASUS43 KDMX 270607
RWRIA

WEATHER ROUNDUP FOR IOWA
NATIONAL WEATHER SERVICE DES MOINES IA
100 AM CDT FRI MAR 27 2015

NOTE: "FAIR" INDICATES FEW OR NO CLOUDS BELOW 12,000 FEET WITH NO
SIGNIFICANT WEATHER AND/OR OBSTRUCTIONS TO VISIBILITY.

* - THESE STATIONS ARE NOT NWS STATIONS...THUS NOT UNDER NWS
QUALITY CONTROL.  THEY ALSO DO NOT REPORT WEATHER SUCH
AS PRECIPITATION OR FOG.

IAZ001>003-012>014-020>022-031>034-043>046-270700-
   NORTHWEST IOWA

CITY           SKY/WX    TMP DP  RH WIND       PRES   REMARKS
CARROLL *      PTCLDY    27  21  80 NW10      30.20S WCI  17
CHEROKEE *     CLEAR     25  19  78 N5        30.24R WCI  19
DENISON *      CLOUDY    28  21  74 N9        30.20S WCI  20
LE MARS *      CLEAR     23  19  86 CALM      30.26R
ORANGE CITY *  CLEAR     27  19  74 N6        30.24R WCI  20
SHELDON *      CLEAR     19  16  86 N7        30.23S WCI  10
SIOUX CITY     CLEAR     28  17  63 N8        30.25S WCI  20
6HR MIN TEMP:  28; 6HR MAX TEMP:  39;

SPENCER        CLEAR     18  14  84 NW7       30.22S WCI   9
6HR MIN TEMP:  18; 6HR MAX TEMP:  34;

STORM LAKE *   CLEAR     23  18  80 N9        30.22R WCI  13
$$

IAZ055>058-069>071-079>083-090>094-270700-
   SOUTHWEST IOWA

CITY           SKY/WX    TMP DP  RH WIND       PRES   REMARKS
ATLANTIC *     CLOUDY    30  25  80 N8        30.20S WCI  23
AUDUBON *      CLEAR     28  21  74 N9        30.20S WCI  20
CLARINDA *     CLEAR     32  32 100 N6        30.21R WCI  26
COUNCIL BLFS * PTCLDY    30  32 100 N9        30.21R WCI  22
CRESTON *      PTCLDY    30  25  80 N12       30.17S WCI  21
HARLAN  *      CLOUDY    30  28  93 N9        30.24S WCI  22
LAMONI         MOCLDY    33  28  81 N12       30.15S WCI  24
6HR MIN TEMP:  33; 6HR MAX TEMP:  44; 6HR PCP: TRACE;

RED OAK *      CLEAR     32  30  93 N10       30.20S WCI  24
SHENANDOAH *   PTCLDY    32  32 100 NW6       30.21S WCI  26
$$

IAZ047>049-059>061-072>074-084-270700-
   CENTRAL IOWA

CITY           SKY/WX    TMP DP  RH WIND       PRES   REMARKS
AMES           CLOUDY    31  19  61 N12       30.19S WCI  22
6HR MIN TEMP:  30; 6HR MAX TEMP:  38;

ANKENY *       CLOUDY    32  21  64 N10       30.19S WCI  24
CHARITON *     CLOUDY    34  23  64 N15       30.16S WCI  24
DES MOINES     MOCLDY    31  19  61 N10       30.19S WCI  22
6HR MIN TEMP:  31; 6HR MAX TEMP:  42;

GRINNELL*      CLOUDY    32  19  59 N10       30.17S WCI  24
KNOXVILLE *    CLOUDY    34  21  60 N9G18     30.16S WCI  26
MARSHALLTOWN   CLOUDY    30  20  66 N9        30.16F WCI  22
6HR MIN TEMP:  30; 6HR MAX TEMP:  37;

PELLA *        CLOUDY    32  26  78 N8        30.18S WCI  25
PERRY *          N/A     28  23  80 N10       30.20S WCI  19
$$

IAZ004>006-015-016-023>025-035-036-270700-
   NORTH CENTRAL IOWA

CITY           SKY/WX    TMP DP  RH WIND       PRES   REMARKS
ALGONA *       PTCLDY    27  21  80 NW7       30.21R WCI  19
CLARION *      MOCLDY    28  21  74 N10       30.19S WCI  19
ESTHERVILLE    CLEAR     23  17  78 NW10      30.20S WCI  12
6HR MIN TEMP:  22; 6HR MAX TEMP:  31;

FORT DODGE *   CLOUDY    28  16  59 N9        30.21R WCI  20
MASON CITY     CLEAR     25  18  74 NW12      30.19S WCI  14
6HR MIN TEMP:  25; 6HR MAX TEMP:  32;

FOREST CITY *  CLEAR     25  19  80 NW9       30.18F WCI  15
IOWA FALLS *   CLOUDY    30  20  65 N13       30.18S WCI  20
$$

IAZ007>011-017>019-026>030-037>042-050>054-066-270700-
   NORTHEAST IOWA

CITY           SKY/WX    TMP DP  RH WIND       PRES   REMARKS
CEDAR RAPIDS   CLOUDY    29  22  75 NW8       30.13F WCI  21
6HR MIN TEMP:  27; 6HR MAX TEMP:  36;

CHARLES CITY * MOCLDY    28  23  80 N13       30.17S WCI  18
CLINTON *      CLOUDY    30  23  74 NW8       30.14F WCI  23
DECORAH *      CLEAR     27  14  59 N8        30.13S WCI  18
DUBUQUE        CLOUDY    29  21  72 N7        30.11S WCI  22
6HR MIN TEMP:  27; 6HR MAX TEMP:  32;

MONTICELLO *   CLOUDY    28  25  86 NW6       30.14S WCI  22
OELWEIN *      CLOUDY    30  23  74 N10       30.15S WCI  21
WATERLOO       CLOUDY    30  22  72 NW12      30.15S WCI  20
6HR MIN TEMP:  27; 6HR MAX TEMP:  33;

$$

IAZ064-065-067-068-078-270700-
   EAST CENTRAL IOWA

CITY           SKY/WX    TMP DP  RH WIND       PRES   REMARKS
DAVENPORT      CLOUDY    30  22  72 NW8       30.12F WCI  22
6HR MIN TEMP:  27; 6HR MAX TEMP:  37;

IOWA CITY      CLOUDY    31  21  66 NW8       30.16F WCI  23
6HR MIN TEMP:  30; 6HR MAX TEMP:  40;

MT. PLEASANT * CLOUDY    31  23  72 N9        30.15S WCI  23
MUSCATINE *    CLOUDY    28  21  74 NW6       30.15F WCI  22
QUAD CITIES    CLOUDY    31  21  66 NW12      30.12F WCI  22
6HR MIN TEMP:  30; 6HR MAX TEMP:  38;

$$

IAZ062-063-075>077-085>089-095>099-270700-
   SOUTHEAST IOWA

CITY           SKY/WX    TMP DP  RH WIND       PRES   REMARKS
BURLINGTON     CLOUDY    33  23  66 N9        30.13F WCI  25
6HR MIN TEMP:  33; 6HR MAX TEMP:  44;

FAIRFIELD *    CLOUDY    32  21  64 N9        30.16S WCI  24
FORT MADISON * CLOUDY    32  25  74 N9        30.14S WCI  24
KEOKUK *       CLOUDY    34  21  60 N8G16     30.13F WCI  27
OSKALOOSA *    CLOUDY    32  24  71 N9        30.16F WCI  24
CENTERVILLE *  CLOUDY    34  25  69 N13       30.16R WCI  25
OTTUMWA        CLOUDY    32  23  69 N8        30.16R WCI  25
6HR MIN TEMP:  32; 6HR MAX TEMP:  41;

WASHINGTON *   CLOUDY    32  23  69 N10       30.15F WCI  24
$$

ABBREVIATIONS USED IN REMARKS
   TC - TEMPERATURES IN CELSIUS
  WCI - WIND CHILL INDEX
   HX - HEAT INDEX
  VSB - VISIBILITY
$$




USA.gov is the U.S. government's official web portal to all federal, state and local government web resources and services.